Content
SEND FEEDBACK

Daily
Averages
Monthly
Summary
United States of America

BARRE, MASSACHUSETTS


Home > North America > United States > Massachusetts
Elevation: 240 meters     Latitude: 42 26N     Longitude: 072 02W

WEATHER
 
SELECT A DAY
Number of Records: 236,191;   Date Range: 1/1/95 - 10/22/14
 
SHARE

PRINT THIS DATA

[ ← Previous Day ]
WEATHER ALMANAC - 31 JANUARY, 2013
[ Next Day → ]
[ °F ]   °C
Weather ElementAverageHighLow
Temperature7.9 °C14.4 °C (2:54 am)-2.8 °C (11:54 pm)
Dewpoint4.1 °C14 °C (5:52 am)-11.7 °C (10:54 pm)
Humidity78.2 %100 % (5:52 am)41 % (2:54 pm)
Barometer988.5 hPa1001.7 hPa (11:54 pm)981.4 hPa (7:54 am)
Wind Speed38.9 km/h61.2 km/h (9:04 am)
Wind Gust88.8 km/h (9:21 am)
Weather ElementAverage
Visibility11.1 km
Wind DirectionWSW (239.8 °)

Weather ElementTotal
Precipitation59.18 mm
Heating Degree Days12.6 (Base 18.3)
Averaged from 42 records on 31 January, 2013
WEATHER CONDITIONS BREAKOUT
WIND DIRECTION BREAKOUT
WEATHER BY HOUR - 31 JANUARY, 2013
[ °F ]   °C
Local TimeTemperatureDewpointHumidityBarometerVisibilityWind DirectionWind SpeedGust SpeedPrecipitationEventsConditions
12:34 AM13.9 °C12.8 °C93 %995.3 hPa8 kmSSW (200°)46.3 km/h70.3 km/h0 mmRainLight Rain
12:54 AM13.9 °C12.8 °C93 %994.9 hPa9.7 kmSSW (200°)33.3 km/h51.8 km/h0.25 mmRainLight Rain
1:54 AM13.9 °C12.8 °C93 %992.9 hPa8 kmSouth (190°)38.9 km/h59.2 km/h1.52 mmRainLight Rain
2:54 AM14.4 °C13.3 °C93 %990.2 hPa6.4 kmSSW (200°)46.3 km/h74 km/h1.27 mmRainLight Rain
3:54 AM14.4 °C13.3 °C93 %987.5 hPa9.7 kmSouth (190°)35.2 km/h55.5 km/h1.78 mmRainRain
4:54 AM14.4 °C13.3 °C93 %984.8 hPa4.8 kmSouth (190°)46.3 km/h77.7 km/h3.05 mmRainHeavy Rain
5:06 AM14.4 °C13.3 °C93 %984.4 hPa4 kmSouth (190°)48.1 km/h72.3 km/h1.27 mmRainHeavy Rain
5:18 AM14.4 °C13.9 °C97 %983.4 hPa4.8 kmSouth (180°)48.1 km/h68.6 km/h3.05 mmRainHeavy Rain
5:32 AM14.4 °C13.9 °C97 %982.7 hPa4.8 kmSouth (180°)51.8 km/h76 km/h5.08 mmRainHeavy Rain
5:41 AM14.4 °C13.9 °C97 %982.4 hPa4 kmSouth (190°)50.1 km/h81.4 km/h6.6 mmRainHeavy Rain
5:44 AM14.4 °C13.9 °C97 %982.4 hPa4.8 kmSouth (190°)48.1 km/h72.3 km/h6.6 mmRainHeavy Rain
5:52 AM14 °C14 °C100 %982.7 hPa6.4 kmSSW (200°)37 km/h68.6 km/h7.37 mmRainRain
5:54 AM14.4 °C13.9 °C97 %982.7 hPa6.4 kmSSW (200°)55.5 km/h79.7 km/h7.87 mmRainRain
6:21 AM14.4 °C13.9 °C97 %984.1 hPa12.9 kmSSW (210°)46.3 km/h68.6 km/h1.52 mmRainRain
6:39 AM13.9 °C11.7 °C87 %983.7 hPa9.7 kmSW (220°)37 km/h77.7 km/h2.03 mmRainRain
6:54 AM13.3 °C11.7 °C90 %983.4 hPa16.1 kmSSW (210°)27.8 km/h46.3 km/h2.79 mmRainLight Rain
7:52 AM13 °C11 °C88 %981.7 hPa16.1 kmSSW (200°)37 km/h51.8 km/h0 mmOvercast
7:54 AM12.8 °C10.6 °C86 %981.4 hPa16.1 kmSSW (200°)40.7 km/h59.2 km/h0 mmOvercast
8:54 AM12.2 °C10 °C86 %981.4 hPa16.1 kmSW (220°)44.4 km/h61.2 km/hOvercast
9:04 AM10.6 °C8.3 °C86 %983.1 hPa4 kmWNW (290°)61.2 km/h77.7 km/h0 mmRainLight Rain
9:08 AM6.7 °C4.4 °C85 %983.4 hPa1.6 kmWNW (290°)50.1 km/h77.7 km/h0 mmRainHeavy Rain
9:21 AM5 °C2.8 °C86 %983.7 hPa3.2 kmWest (280°)44.4 km/h88.8 km/h1.52 mmRainRain
9:26 AM5 °C2.8 °C86 %984.4 hPa4.8 kmWNW (290°)46.3 km/h72.3 km/h1.52 mmRainLight Rain
9:40 AM3.9 °C2.2 °C89 %984.8 hPa4.8 kmWest (270°)42.6 km/h62.9 km/h1.78 mmRainRain
9:54 AM4.4 °C2.2 °C86 %984.8 hPa16.1 kmWest (280°)35.2 km/h51.8 km/h2.29 mmRainLight Rain
10:03 AM5 °C2.8 °C86 %984.8 hPa16.1 kmWest (280°)25.9 km/h50.1 km/h0 mmScattered Clouds
10:29 AM5 °C2.2 °C82 %986.1 hPa16.1 kmWest (260°)25.9 km/h53.8 km/h0 mmMostly Cloudy
10:54 AM5.6 °C2.2 °C79 %987.1 hPa16.1 kmWest (270°)38.9 km/h55.5 km/h0 mmOvercast
11:42 AM4.4 °C0 °C73 %988.1 hPa16.1 kmWest (280°)38.9 km/h53.8 km/h0 mmOvercast
11:54 AM4.4 °C-1.1 °C68 %988.5 hPa16.1 kmWest (270°)44.4 km/h66.6 km/h0 mmMostly Cloudy
12:54 PM3.9 °C-2.8 °C62 %989.2 hPa16.1 kmWest (270°)37 km/h62.9 km/hMostly Cloudy
1:54 PM3.9 °C-6.1 °C49 %990.2 hPa16.1 kmWest (280°)38.9 km/h59.2 km/hScattered Clouds
2:54 PM3.9 °C-8.3 °C41 %991.9 hPa16.1 kmWest (270°)33.3 km/h51.8 km/hScattered Clouds
3:54 PM3.3 °C-8.3 °C43 %993.2 hPa16.1 kmWest (270°)20.4 km/h55.5 km/hOvercast
4:54 PM2.2 °C-8.9 °C44 %994.6 hPa16.1 kmWest (270°)25.9 km/h46.3 km/hMostly Cloudy
5:54 PM1.1 °C-8.9 °C48 %996.3 hPa16.1 kmWNW (290°)31.5 km/h42.6 km/hOvercast
6:54 PM0 °C-9.4 °C50 %997.3 hPa16.1 kmWest (270°)31.5 km/h44.4 km/hPartly Cloudy
7:54 PM0 °C-10.6 °C45 %998.6 hPa16.1 kmWest (270°)31.5 km/h42.6 km/hOvercast
8:54 PM-1.7 °C-7.8 °C64 %999.7 hPa9.7 kmWest (260°)25.9 km/h48.1 km/h0 mmSnowLight Snow
9:54 PM-1.7 °C-10 °C54 %1000.7 hPa16.1 kmWest (280°)40.7 km/h55.5 km/h0 mmMostly Cloudy
10:54 PM-2.2 °C-11.7 °C49 %1001.4 hPa16.1 kmWest (260°)24.1 km/h40.7 km/h0 mmScattered Clouds
11:54 PM-2.8 °C-10 °C58 %1001.7 hPa14.5 kmWest (260°)20.4 km/h0 mmSnowLight Snow
Hourly data recorded from KORH, located 0 kilometers away from Barre, Massachusetts







STORIES FROM OUR PARTNERS